[[{"header":{"parameterUnit":"m.s-1","parameterCategory":1,"la1":30.2991,"la2":30.254,"lo1":-89.0895,"lo2":-89.0444,"dy":0.0017,"dx":0.0017,"nx":28,"ny":28,"refTime":"2025-11-17T09:00:00:Z","depth":0,"parameterNumber":2,"parameterNumberName":"U-component_of_WINDS"},"data":[0,0,0,0,0,0,0,0,0,0,0,0,0,0,0,0,0,0,0,0,0,0,0,0,0,0,0,0,0,0,0,0,0,0,0,0,0,0,0,0,0,0,0,0,0,0,0,0,0,0,0,0,0,0,0,0,0,0,-1.8511,-1.8511,0,-1.8519,-1.8519,-1.8519,-1.85,-1.8499,-1.8498,-1.8498,-1.8506,-1.8507,-1.8508,0,0,0,0,0,0,0,0,0,0,0,0,0,-1.8482,-1.8483,-1.8511,-1.8511,-1.8511,-1.8519,-1.8519,-1.8519,-1.85,-1.8499,-1.8498,-1.8498,-1.8506,-1.8507,-1.8508,0,0,0,0,0,0,0,0,0,0,0,0,0,-1.8493,-1.8483,-1.8511,-1.8503,-1.8502,-1.8519,-1.8519,-1.8519,-1.85,-1.8499,-1.8498,-1.8497,-1.8506,-1.8507,-1.8508,-1.8533,0,0,-1.8511,-1.8512,0,0,0,0,0,0,0,0,-1.8492,-1.8494,-1.8504,-1.8503,-1.8503,-1.8507,-1.8512,-1.8524,-1.85,-1.8501,-1.8498,-1.8497,-1.8507,-1.8508,-1.8512,-1.8534,-1.8534,-1.8512,-1.8512,-1.8513,-1.8513,0,0,0,0,0,0,0,-1.8492,-1.8493,-1.8514,-1.8504,-1.8503,-1.8499,-1.85,-1.8514,-1.8509,-1.8501,-1.8499,-1.85,-1.8507,-1.8511,-1.8512,-1.8534,-1.8512,-1.8513,-1.8513,-1.8514,-1.858,-1.8581,0,0,0,0,0,0,-1.8492,-1.8493,-1.8514,-1.8514,-1.8495,-1.85,-1.8501,-1.8507,-1.8509,-1.8508,-1.8501,-1.8499,-1.8509,-1.851,-1.8512,-1.8543,-1.8513,-1.8514,-1.8515,-1.8579,-1.858,-1.8581,0,0,0,0,0,0,-1.8491,-1.8494,-1.8514,-1.8503,-1.8506,-1.8502,-1.8508,-1.8507,-1.8511,-1.8509,-1.8508,-1.8506,-1.8508,-1.851,-1.8529,-1.8543,-1.8514,-1.8515,-1.8577,-1.8579,-1.858,-1.8605,0,0,0,0,0,0,-1.849,-1.8494,-1.8502,-1.8504,-1.8506,-1.8529,-1.8509,-1.8508,-1.8513,-1.8511,-1.8513,-1.8513,-1.8508,-1.8527,-1.853,-1.8544,-1.8516,-1.8576,-1.8578,-1.858,-1.8603,-1.8607,-1.8611,0,0,0,0,0,-1.8489,-1.8509,-1.8503,-1.8506,-1.8517,-1.853,-1.8532,-1.8525,-1.8514,-1.8524,-1.8523,-1.8513,-1.8541,-1.8529,-1.8532,-1.8547,-1.8575,-1.8578,-1.858,-1.8601,-1.8606,-1.8611,0,0,0,0,0,0,-1.8509,-1.8509,-1.8502,-1.8522,-1.8527,-1.8527,-1.8538,-1.8531,-1.8538,-1.8536,-1.8528,-1.8529,-1.8549,-1.855,-1.8536,-1.8573,-1.8556,-1.8559,-1.8571,-1.8576,-1.858,-1.858,-1.8517,0,0,0,0,0,-1.8516,-1.8526,-1.8525,-1.8543,-1.8545,-1.8542,-1.8547,-1.8542,-1.8546,-1.8548,-1.8548,-1.8553,-1.8563,-1.857,-1.8579,-1.8603,-1.8604,-1.8615,-1.8619,-1.8622,-1.8625,-1.864,-1.8645,-1.8589,-1.8589,-1.8589,0,0,-1.8529,-1.853,-1.8537,-1.8547,-1.855,-1.8561,-1.8543,-1.8556,-1.8565,-1.855,-1.8567,-1.8568,-1.8573,-1.8595,-1.8604,-1.8596,-1.8641,-1.8626,-1.8628,-1.8629,-1.8643,-1.8649,-1.8653,-1.859,-1.859,-1.859,0,0,-1.856,-1.8562,-1.8578,-1.8581,-1.8586,-1.8583,-1.8587,-1.859,-1.859,-1.8607,-1.8597,-1.8608,-1.8625,-1.8629,-1.8634,-1.867,-1.8661,-1.8673,-1.8694,-1.8709,-1.8713,-1.8717,-1.8731,-1.8736,-1.8676,-1.8676,-1.8676,0,-1.8577,-1.8593,-1.8587,-1.8601,-1.8606,-1.8594,-1.8611,-1.8614,-1.8622,-1.8626,-1.8617,-1.864,-1.8642,-1.8666,-1.8675,-1.8678,-1.8684,-1.8672,-1.8713,-1.8717,-1.872,-1.8734,-1.8739,-1.8677,-1.8677,-1.8677,-1.8677,0,-1.8614,-1.8626,-1.8639,-1.8647,-1.8653,-1.8669,-1.8665,-1.8673,-1.8668,-1.8668,-1.8687,-1.869,-1.87,-1.8705,-1.87,-1.8729,-1.8724,-1.8714,-1.8697,-1.8727,-1.874,-1.8745,-1.8679,-1.8679,-1.8678,-1.8678,0,0,-1.8656,-1.8662,-1.8667,-1.8671,-1.8676,-1.8686,-1.8702,-1.8712,-1.872,-1.8726,-1.8739,-1.8756,-1.8747,-1.8752,-1.8748,-1.8761,-1.8791,-1.8749,-1.8749,-1.8758,-1.8825,-1.8833,-1.8839,-1.8786,-1.8787,-1.8787,-1.8825,0,-1.8687,-1.8714,-1.871,-1.8736,-1.8748,-1.8738,-1.8752,-1.8757,-1.8757,-1.8768,-1.8769,-1.8781,-1.8768,-1.8771,-1.8784,-1.8785,-1.8804,-1.8782,-1.8799,-1.88,-1.8799,-1.8845,-1.8853,-1.8888,-1.883,-1.883,-1.8831,0,-1.8727,-1.8736,-1.8763,-1.8769,-1.8773,-1.8786,-1.8796,-1.8807,-1.8813,-1.8813,-1.882,-1.8814,-1.8831,-1.8815,-1.8839,-1.8824,-1.8831,-1.8833,-1.8835,-1.8836,-1.8817,-1.8848,-1.8899,-1.8904,-1.8838,-1.8838,-1.8837,0,-1.8756,-1.8775,-1.8794,-1.8798,-1.8804,-1.8814,-1.8817,-1.8823,-1.883,-1.884,-1.8845,-1.8856,-1.8862,-1.8872,-1.887,-1.8858,-1.8896,-1.8878,-1.8897,-1.8897,-1.8905,-1.8904,-1.8958,-1.8909,-1.8909,-1.8909,-1.8909,0,-1.8792,-1.8809,-1.8807,-1.8819,-1.8839,-1.8835,-1.8855,-1.8857,-1.8863,-1.8876,-1.8868,-1.8881,-1.8877,-1.889,-1.8889,-1.891,-1.8913,-1.8914,-1.8913,-1.8915,-1.8915,-1.8919,-1.8917,-1.891,-1.891,-1.8909,-1.8909,0,-1.8827,-1.8826,-1.8847,-1.8852,-1.8854,-1.8869,-1.8874,-1.8886,-1.8886,-1.8903,-1.8907,-1.8908,-1.8923,-1.8922,-1.8939,-1.8938,-1.8965,-1.8961,-1.8962,-1.8962,-1.898,-1.8979,-1.9039,-1.9047,-1.8993,-1.8993,-1.8993,0,-1.885,-1.8863,-1.8871,-1.8879,-1.8883,-1.8896,-1.8904,-1.8901,-1.891,-1.892,-1.8931,-1.8946,-1.8957,-1.8982,-1.8985,-1.8998,-1.8995,-1.9015,-1.8997,-1.8999,-1.8997,-1.8996,-1.8998,-1.9019,-1.9019,-1.902,-1.902,0,-1.8891,-1.889,-1.8902,-1.8914,-1.8924,-1.8933,-1.8942,-1.8949,-1.8948,-1.8958,-1.8974,-1.8983,-1.9001,-1.9016,-1.9029,-1.9033,-1.9027,-1.9026,-1.9031,-1.9033,-1.9034,-1.9035,-1.8973,-1.9025,-1.9024,-1.9024,-1.9024,-1.9024,-1.8921,-1.8933,-1.8941,-1.8955,-1.8961,-1.897,-1.8982,-1.8985,-1.8998,-1.9012,-1.901,-1.9028,-1.9037,-1.9054,-1.906,-1.9075,-1.9068,-1.9075,-1.9077,-1.9079,-1.9081,-1.9031,-1.9077,-1.9077,-1.9077,-1.9077,-1.9077,0,-1.8962,-1.8967,-1.898,-1.8993,-1.9004,-1.8998,-1.9008,-1.9018,-1.9034,-1.9042,-1.9054,-1.9073,-1.9089,-1.9093,-1.9109,-1.912,-1.9117,-1.9124,-1.9123,-1.9124,-1.9086,-1.9081,-1.9125,-1.9125,-1.9125,-1.9125,-1.9125,-1.9125,-1.8985,-1.9006,-1.9007,-1.9032,-1.9037,-1.9054,-1.9061,-1.9069,-1.9077,-1.9098,-1.9111,-1.9114,-1.9122,-1.9138,-1.9152,-1.9154,-1.916,-1.9168,-1.9168,-1.9132,-1.9127,-1.9122,-1.9117,-1.9169,-1.9169,-1.9205,-1.9205,-1.9206]},{"header":{"parameterUnit":"m.s-1","parameterCategory":1,"la1":30.2991,"la2":30.254,"lo1":-89.0895,"lo2":-89.0444,"dy":0.0017,"dx":0.0017,"nx":28,"ny":28,"refTime":"2025-11-17T09:00:00:Z","depth":0,"parameterNumber":3,"parameterNumberName":"V-component_of_WINDS"},"data":[0,0,0,0,0,0,0,0,0,0,0,0,0,0,0,0,0,0,0,0,0,0,0,0,0,0,0,0,0,0,0,0,0,0,0,0,0,0,0,0,0,0,0,0,0,0,0,0,0,0,0,0,0,0,0,0,0,0,0.2061,0.206,0,0.2018,0.2017,0.2017,0.2023,0.2024,0.2025,0.2025,0.198,0.1978,0.1977,0,0,0,0,0,0,0,0,0,0,0,0,0,0.2148,0.2146,0.2061,0.206,0.206,0.2018,0.2017,0.2017,0.2023,0.2024,0.2025,0.2026,0.1981,0.1979,0.1976,0,0,0,0,0,0,0,0,0,0,0,0,0,0.2108,0.2146,0.2061,0.2058,0.2057,0.2018,0.2017,0.2016,0.2023,0.2024,0.2025,0.2026,0.1982,0.1979,0.1976,0.1937,0,0,0.1967,0.1966,0,0,0,0,0,0,0,0,0.211,0.2105,0.2059,0.2058,0.2057,0.2027,0.2031,0.199,0.2023,0.2036,0.2025,0.2027,0.1995,0.1991,0.198,0.1935,0.1933,0.1967,0.1965,0.1964,0.1963,0,0,0,0,0,0,0,0.2113,0.2107,0.2044,0.2058,0.2057,0.2058,0.2054,0.2023,0.201,0.2035,0.2035,0.203,0.1995,0.1983,0.1979,0.1932,0.1967,0.1965,0.1963,0.1962,0.1851,0.1849,0,0,0,0,0,0,0.2117,0.2109,0.2045,0.2042,0.2087,0.2056,0.2051,0.2036,0.201,0.2007,0.2029,0.203,0.1987,0.1983,0.1978,0.1929,0.1964,0.1962,0.196,0.1852,0.185,0.1849,0,0,0,0,0,0,0.2118,0.2111,0.2047,0.2076,0.2068,0.2053,0.2036,0.2034,0.2023,0.2006,0.2003,0.202,0.1988,0.1982,0.1947,0.1927,0.196,0.1958,0.1853,0.1851,0.185,0.1831,0,0,0,0,0,0,0.2121,0.2112,0.2097,0.2075,0.2066,0.2016,0.2035,0.2032,0.2018,0.2019,0.1997,0.1994,0.1988,0.1951,0.1944,0.1924,0.1956,0.1855,0.1852,0.185,0.1833,0.1829,0.1825,0,0,0,0,0,0.2124,0.2093,0.2096,0.2088,0.2047,0.2015,0.201,0.2005,0.2016,0.2001,0.199,0.1995,0.1931,0.1947,0.1939,0.1918,0.1856,0.1853,0.185,0.1835,0.1829,0.1825,0,0,0,0,0,0,0.2112,0.209,0.2093,0.2054,0.2037,0.2017,0.1997,0.1999,0.1978,0.198,0.1974,0.1969,0.1933,0.1923,0.1941,0.1878,0.1895,0.1891,0.1886,0.1881,0.1877,0.1879,0.1953,0,0,0,0,0,0.2105,0.2081,0.2064,0.2031,0.2022,0.2011,0.1997,0.1995,0.1976,0.1968,0.1955,0.1937,0.1912,0.1896,0.1873,0.1833,0.1827,0.1814,0.181,0.1807,0.1802,0.1778,0.1772,0.1839,0.184,0.184,0,0,0.209,0.2075,0.206,0.2028,0.2014,0.1989,0.2005,0.1978,0.1959,0.1964,0.193,0.1919,0.1898,0.186,0.1842,0.185,0.1783,0.1803,0.1801,0.1798,0.1775,0.1768,0.1763,0.1838,0.1838,0.1838,0,0,0.2049,0.2036,0.2007,0.1993,0.1972,0.1965,0.1958,0.1937,0.193,0.1896,0.1899,0.1877,0.1836,0.182,0.1807,0.1761,0.1763,0.1753,0.173,0.1707,0.1702,0.1697,0.1679,0.1672,0.1749,0.1749,0.1749,0,0.2033,0.1995,0.1992,0.1964,0.1949,0.1954,0.1924,0.191,0.1883,0.1872,0.1882,0.1829,0.1816,0.1773,0.1762,0.1751,0.1742,0.1755,0.1703,0.1698,0.1694,0.1676,0.1669,0.1748,0.1748,0.1748,0.1749,0,0.1975,0.1949,0.1928,0.1901,0.1885,0.1856,0.1848,0.1831,0.1831,0.1822,0.1787,0.1771,0.1744,0.1734,0.1733,0.1691,0.1696,0.1705,0.1721,0.1686,0.1669,0.1663,0.1746,0.1747,0.1747,0.1748,0,0,0.1924,0.1896,0.1888,0.1875,0.1852,0.1832,0.1804,0.1778,0.1763,0.1744,0.1719,0.1684,0.1692,0.1677,0.1675,0.1655,0.1617,0.1665,0.1665,0.1655,0.1567,0.1559,0.1551,0.162,0.1618,0.1617,0.1568,0,0.1879,0.1828,0.1825,0.1779,0.1754,0.1759,0.1734,0.1717,0.1709,0.1686,0.1678,0.1652,0.1665,0.1656,0.1636,0.1625,0.1599,0.1629,0.1595,0.1593,0.1597,0.1543,0.1534,0.1488,0.1562,0.1561,0.156,0,0.182,0.1799,0.175,0.173,0.172,0.1697,0.1673,0.1652,0.1633,0.1628,0.1612,0.1612,0.1582,0.1602,0.156,0.158,0.1567,0.1559,0.1557,0.1552,0.1573,0.1534,0.1474,0.1466,0.155,0.1551,0.1551,0,0.1784,0.1744,0.171,0.1699,0.1676,0.166,0.1649,0.1631,0.1615,0.1594,0.1584,0.156,0.1546,0.1527,0.1521,0.1535,0.1478,0.1497,0.1472,0.1472,0.1458,0.1458,0.1392,0.1453,0.1453,0.1453,0.1453,0,0.1733,0.1703,0.1693,0.1672,0.1638,0.1634,0.1601,0.1591,0.1575,0.1551,0.1555,0.1532,0.1527,0.1503,0.1498,0.1463,0.1458,0.1452,0.1451,0.145,0.145,0.1439,0.1441,0.1451,0.1452,0.1452,0.1452,0,0.1686,0.1679,0.1642,0.1623,0.1617,0.1593,0.1576,0.1555,0.1549,0.1518,0.1511,0.15,0.1472,0.1465,0.1432,0.1428,0.1386,0.1389,0.1393,0.1392,0.1366,0.1368,0.1289,0.1277,0.1348,0.1347,0.1346,0,0.1653,0.163,0.1608,0.1593,0.1581,0.1557,0.1541,0.1537,0.152,0.1496,0.1478,0.1451,0.1429,0.1385,0.1373,0.1348,0.1348,0.1322,0.1344,0.1344,0.1345,0.1345,0.1342,0.1317,0.1317,0.1316,0.1316,0,0.1594,0.1591,0.1568,0.1544,0.1525,0.1506,0.1487,0.1474,0.1467,0.1448,0.142,0.1403,0.137,0.1342,0.1317,0.1305,0.1308,0.1309,0.1302,0.1299,0.1301,0.1298,0.1379,0.131,0.1311,0.1311,0.1311,0.1312,0.1551,0.153,0.1511,0.1486,0.1471,0.1454,0.1433,0.1423,0.14,0.1372,0.1372,0.1341,0.1322,0.1288,0.1275,0.1251,0.1258,0.1248,0.1245,0.1242,0.1238,0.1308,0.1247,0.1247,0.1247,0.1247,0.1247,0,0.149,0.1478,0.1455,0.1428,0.1408,0.1414,0.1394,0.1376,0.1349,0.1332,0.131,0.1277,0.1251,0.1237,0.1211,0.1194,0.1194,0.1187,0.1186,0.1183,0.1234,0.1242,0.1186,0.1186,0.1186,0.1186,0.1186,0.1186,0.1455,0.1419,0.1415,0.1372,0.1361,0.1331,0.1318,0.1302,0.1288,0.1251,0.1229,0.1221,0.1205,0.1177,0.1153,0.115,0.1139,0.113,0.1127,0.1174,0.118,0.1186,0.1193,0.1128,0.1128,0.1078,0.1078,0.1077]}]]